Time,TemperatureF,DewpointF,PressureIn,WindDirection,WindDirectionDegrees,WindSpeedMPH,WindSpeedGustMPH,Humidity,HourlyPrecipIn,Conditions,Clouds,dailyrainin,SoftwareType,DateUTC
2013-06-28 00:04:00,82.9,64.0,29.89,WSW,256,0.0,3.0,53,0.00,,---,0.00,VWS V14.00,2013-06-28 05:04:00,
2013-06-28 00:09:00,82.8,63.9,29.89,WSW,243,0.0,2.0,53,0.00,,---,0.00,VWS V14.00,2013-06-28 05:09:00,
2013-06-28 00:15:00,82.7,63.8,29.87,WSW,238,0.0,2.0,53,0.00,,---,0.00,VWS V14.00,2013-06-28 05:15:00,
2013-06-28 00:20:00,82.7,63.8,29.87,WSW,245,1.0,1.0,53,0.00,,---,0.00,VWS V14.00,2013-06-28 05:20:00,
2013-06-28 00:25:00,82.6,64.3,29.87,WSW,241,0.0,0.0,54,0.00,,---,0.00,VWS V14.00,2013-06-28 05:25:00,
2013-06-28 00:31:00,82.4,64.1,29.88,WSW,242,0.0,0.0,54,0.00,,---,0.00,VWS V14.00,2013-06-28 05:31:00,
2013-06-28 00:36:00,82.5,64.2,29.88,WSW,248,0.0,1.0,54,0.00,,---,0.00,VWS V14.00,2013-06-28 05:36:00,
2013-06-28 00:41:00,82.5,64.2,29.88,WSW,248,0.0,0.0,54,0.00,,---,0.00,VWS V14.00,2013-06-28 05:41:00,
2013-06-28 00:46:00,82.3,64.0,29.88,SW,235,0.0,0.0,54,0.00,,---,0.00,VWS V14.00,2013-06-28 05:46:00,
2013-06-28 00:51:00,82.1,64.3,29.88,WSW,241,3.0,4.0,55,0.00,,---,0.00,VWS V14.00,2013-06-28 05:51:00,
2013-06-28 00:56:00,81.9,64.7,29.88,WSW,240,0.0,0.0,56,0.00,,---,0.00,VWS V14.00,2013-06-28 05:56:00,
2013-06-28 01:02:00,81.7,64.5,29.85,SW,218,1.0,1.0,56,0.00,,---,0.00,VWS V14.00,2013-06-28 06:02:00,
2013-06-28 01:07:00,81.8,64.1,29.85,SSW,199,2.0,2.0,55,0.00,,---,0.00,VWS V14.00,2013-06-28 06:07:00,
2013-06-28 01:12:00,81.8,64.1,29.83,SSW,206,1.0,1.0,55,0.00,,---,0.00,VWS V14.00,2013-06-28 06:12:00,
2013-06-28 01:17:00,81.8,64.1,29.83,SSW,207,0.0,0.0,55,0.00,,---,0.00,VWS V14.00,2013-06-28 06:17:00,
2013-06-28 01:22:00,82.3,63.5,29.83,SSW,207,0.0,0.0,53,0.00,,---,0.00,VWS V14.00,2013-06-28 06:22:00,
2013-06-28 01:27:00,82.5,63.7,29.82,SSW,207,0.0,0.0,53,0.00,,---,0.00,VWS V14.00,2013-06-28 06:27:00,
2013-06-28 01:32:00,82.8,63.9,29.82,SSW,206,2.0,2.0,53,0.00,,---,0.00,VWS V14.00,2013-06-28 06:32:00,
2013-06-28 01:37:00,82.7,63.8,29.82,SSW,207,0.0,0.0,53,0.00,,---,0.00,VWS V14.00,2013-06-28 06:37:00,
2013-06-28 01:42:00,82.4,64.1,29.85,North,9,0.0,13.0,54,0.00,,---,0.00,VWS V14.00,2013-06-28 06:42:00,
2013-06-28 01:47:00,83.4,62.3,29.85,WNW,288,0.0,1.0,49,0.00,,---,0.00,VWS V14.00,2013-06-28 06:47:00,
2013-06-28 01:52:00,84.0,62.2,29.85,ENE,65,2.0,3.0,48,0.00,,---,0.00,VWS V14.00,2013-06-28 06:52:00,
2013-06-28 01:58:00,84.5,62.1,29.83,NNE,26,0.0,9.0,47,0.00,,---,0.00,VWS V14.00,2013-06-28 06:58:00,
2013-06-28 02:03:00,84.9,62.4,29.83,NE,35,0.0,1.0,47,0.00,,---,0.00,VWS V14.00,2013-06-28 07:03:00,
2013-06-28 02:08:00,85.3,62.2,29.83,West,278,0.0,3.0,46,0.00,,---,0.00,VWS V14.00,2013-06-28 07:08:00,
2013-06-28 02:13:00,85.4,62.3,29.84,West,262,0.0,0.0,46,0.00,,---,0.00,VWS V14.00,2013-06-28 07:13:00,
2013-06-28 02:18:00,85.5,61.8,29.84,West,262,0.0,0.0,45,0.00,,---,0.00,VWS V14.00,2013-06-28 07:18:00,
2013-06-28 02:23:00,85.4,61.7,29.84,West,264,0.0,1.0,45,0.00,,---,0.00,VWS V14.00,2013-06-28 07:23:00,
2013-06-28 02:28:00,85.3,62.2,29.85,West,265,0.0,0.0,46,0.00,,---,0.00,VWS V14.00,2013-06-28 07:28:00,
2013-06-28 02:33:00,84.8,63.0,29.85,West,265,0.0,0.0,48,0.00,,---,0.00,VWS V14.00,2013-06-28 07:33:00,
2013-06-28 02:38:00,84.4,63.2,29.85,West,265,0.0,0.0,49,0.00,,---,0.00,VWS V14.00,2013-06-28 07:38:00,
2013-06-28 02:43:00,84.1,63.5,29.84,West,265,0.0,0.0,50,0.00,,---,0.00,VWS V14.00,2013-06-28 07:43:00,
2013-06-28 02:48:00,83.6,63.0,29.84,West,265,0.0,0.0,50,0.00,,---,0.00,VWS V14.00,2013-06-28 07:48:00,
2013-06-28 02:53:00,83.5,62.9,29.84,West,265,0.0,0.0,50,0.00,,---,0.00,VWS V14.00,2013-06-28 07:53:00,
2013-06-28 02:58:00,83.6,63.6,29.84,West,265,0.0,0.0,51,0.00,,---,0.00,VWS V14.00,2013-06-28 07:58:00,
2013-06-28 03:03:00,83.6,63.0,29.84,West,265,0.0,0.0,50,0.00,,---,0.00,VWS V14.00,2013-06-28 08:03:00,
2013-06-28 03:09:00,83.6,63.6,29.84,West,265,0.0,0.0,51,0.00,,---,0.00,VWS V14.00,2013-06-28 08:09:00,
2013-06-28 03:14:00,83.1,63.7,29.84,West,265,0.0,0.0,52,0.00,,---,0.00,VWS V14.00,2013-06-28 08:14:00,
2013-06-28 03:20:00,82.8,63.9,29.84,West,265,0.0,0.0,53,0.00,,---,0.00,VWS V14.00,2013-06-28 08:20:00,
2013-06-28 03:25:00,82.3,64.0,29.84,West,265,2.0,3.0,54,0.00,,---,0.00,VWS V14.00,2013-06-28 08:25:00,
2013-06-28 03:30:00,81.9,64.2,29.87,West,265,0.0,3.0,55,0.00,,---,0.00,VWS V14.00,2013-06-28 08:30:00,
2013-06-28 03:35:00,81.5,65.8,29.87,West,267,4.0,6.0,59,0.00,,---,0.00,VWS V14.00,2013-06-28 08:35:00,
2013-06-28 03:40:00,80.5,65.8,29.87,SW,231,3.0,5.0,61,0.00,,---,0.00,VWS V14.00,2013-06-28 08:40:00,
2013-06-28 03:45:00,80.0,65.8,29.89,West,268,0.0,6.0,62,0.00,,---,0.00,VWS V14.00,2013-06-28 08:45:00,
2013-06-28 03:50:00,79.9,65.7,29.89,North,0,0.0,0.0,62,0.00,,---,0.00,VWS V14.00,2013-06-28 08:50:00,
2013-06-28 03:55:00,80.0,65.8,29.89,NNW,334,0.0,0.0,62,0.00,,---,0.00,VWS V14.00,2013-06-28 08:55:00,
2013-06-28 04:00:00,80.2,66.0,29.90,NNW,343,0.0,0.0,62,0.00,,---,0.00,VWS V14.00,2013-06-28 09:00:00,
2013-06-28 04:05:00,80.5,66.8,29.90,NE,46,0.0,2.0,63,0.00,,---,0.00,VWS V14.00,2013-06-28 09:05:00,
2013-06-28 04:10:00,81.0,67.2,29.90,NNE,20,2.0,3.0,63,0.00,,---,0.00,VWS V14.00,2013-06-28 09:10:00,
2013-06-28 04:15:00,81.3,68.0,29.90,NNE,13,0.0,0.0,64,0.00,,---,0.00,VWS V14.00,2013-06-28 09:15:00,
2013-06-28 04:20:00,81.3,68.4,29.90,NE,43,0.0,4.0,65,0.00,,---,0.00,VWS V14.00,2013-06-28 09:20:00,
2013-06-28 04:25:00,81.3,68.4,29.90,NE,43,0.0,0.0,65,0.00,,---,0.00,VWS V14.00,2013-06-28 09:25:00,
2013-06-28 04:30:00,81.1,68.7,29.91,NE,43,0.0,0.0,66,0.00,,---,0.00,VWS V14.00,2013-06-28 09:30:00,
2013-06-28 04:35:00,80.9,68.5,29.91,NE,43,0.0,0.0,66,0.00,,---,0.00,VWS V14.00,2013-06-28 09:35:00,
2013-06-28 04:40:00,80.9,68.5,29.91,NE,43,0.0,0.0,66,0.00,,---,0.00,VWS V14.00,2013-06-28 09:40:00,
2013-06-28 04:45:00,80.9,68.5,29.92,NE,43,0.0,0.0,66,0.00,,---,0.00,VWS V14.00,2013-06-28 09:45:00,
2013-06-28 04:50:00,80.9,68.5,29.92,NE,43,0.0,0.0,66,0.00,,---,0.00,VWS V14.00,2013-06-28 09:50:00,
2013-06-28 04:55:00,80.9,68.5,29.92,NE,43,0.0,0.0,66,0.00,,---,0.00,VWS V14.00,2013-06-28 09:55:00,
2013-06-28 05:00:00,80.9,68.5,29.92,NE,43,0.0,0.0,66,0.00,,---,0.00,VWS V14.00,2013-06-28 10:00:00,
2013-06-28 05:05:00,80.9,68.5,29.92,NE,43,0.0,0.0,66,0.00,,---,0.00,VWS V14.00,2013-06-28 10:05:00,
2013-06-28 05:10:00,80.9,68.5,29.92,NE,43,0.0,0.0,66,0.00,,---,0.00,VWS V14.00,2013-06-28 10:10:00,
2013-06-28 05:15:00,80.9,68.5,29.93,NE,43,0.0,0.0,66,0.00,,---,0.00,VWS V14.00,2013-06-28 10:15:00,
2013-06-28 05:20:00,80.9,68.5,29.93,NE,43,0.0,0.0,66,0.00,,---,0.00,VWS V14.00,2013-06-28 10:20:00,
2013-06-28 05:25:00,80.9,68.5,29.93,NE,43,0.0,0.0,66,0.00,,---,0.00,VWS V14.00,2013-06-28 10:25:00,
2013-06-28 05:30:00,80.9,68.5,29.92,NE,43,0.0,0.0,66,0.00,,---,0.00,VWS V14.00,2013-06-28 10:30:00,
2013-06-28 05:35:00,80.9,68.5,29.92,NE,43,0.0,0.0,66,0.00,,---,0.00,VWS V14.00,2013-06-28 10:35:00,
2013-06-28 05:41:00,80.9,68.5,29.92,NE,43,0.0,0.0,66,0.00,,---,0.00,VWS V14.00,2013-06-28 10:41:00,
2013-06-28 05:46:00,80.9,68.5,29.92,NE,43,0.0,0.0,66,0.00,,---,0.00,VWS V14.00,2013-06-28 10:46:00,
2013-06-28 05:51:00,80.9,68.5,29.92,NE,43,0.0,0.0,66,0.00,,---,0.00,VWS V14.00,2013-06-28 10:51:00,
2013-06-28 05:56:00,80.9,68.5,29.92,NE,43,0.0,0.0,66,0.00,,---,0.00,VWS V14.00,2013-06-28 10:56:00,
2013-06-28 06:01:00,80.9,68.5,29.93,NE,43,0.0,0.0,66,0.00,,---,0.00,VWS V14.00,2013-06-28 11:01:00,
2013-06-28 06:06:00,80.9,68.5,29.93,NE,43,0.0,0.0,66,0.00,,---,0.00,VWS V14.00,2013-06-28 11:06:00,
2013-06-28 06:11:00,80.9,68.5,29.93,NE,43,0.0,0.0,66,0.00,,---,0.00,VWS V14.00,2013-06-28 11:11:00,
2013-06-28 06:16:00,80.9,68.5,29.93,NE,43,0.0,0.0,66,0.00,,---,0.00,VWS V14.00,2013-06-28 11:16:00,
2013-06-28 06:21:00,80.9,68.5,29.93,NE,43,0.0,0.0,66,0.00,,---,0.00,VWS V14.00,2013-06-28 11:21:00,
2013-06-28 06:26:00,80.9,68.5,29.93,NE,43,0.0,0.0,66,0.00,,---,0.00,VWS V14.00,2013-06-28 11:26:00,
2013-06-28 06:31:00,80.9,68.5,29.92,NE,43,0.0,0.0,66,0.00,,---,0.00,VWS V14.00,2013-06-28 11:31:00,
2013-06-28 06:36:00,80.9,68.5,29.92,NE,43,0.0,0.0,66,0.00,,---,0.00,VWS V14.00,2013-06-28 11:36:00,
2013-06-28 06:41:00,80.9,68.5,29.92,NE,43,0.0,0.0,66,0.00,,---,0.00,VWS V14.00,2013-06-28 11:41:00,
2013-06-28 06:46:00,80.9,68.5,29.92,NE,43,0.0,0.0,66,0.00,,---,0.00,VWS V14.00,2013-06-28 11:46:00,
2013-06-28 06:51:00,80.9,68.5,29.92,NE,43,0.0,0.0,66,0.00,,---,0.00,VWS V14.00,2013-06-28 11:51:00,
2013-06-28 06:56:00,80.9,68.5,29.92,NE,43,0.0,0.0,66,0.00,,---,0.00,VWS V14.00,2013-06-28 11:56:00,
2013-06-28 07:02:00,80.9,68.5,29.92,NE,43,0.0,0.0,66,0.00,,---,0.00,VWS V14.00,2013-06-28 12:02:00,
2013-06-28 07:07:00,80.9,68.5,29.92,NE,43,0.0,0.0,66,0.00,,---,0.00,VWS V14.00,2013-06-28 12:07:00,
2013-06-28 07:12:00,80.9,68.5,29.92,NE,43,0.0,0.0,66,0.00,,---,0.00,VWS V14.00,2013-06-28 12:12:00,
2013-06-28 07:17:00,80.9,68.5,29.92,NE,43,0.0,0.0,66,0.00,,---,0.00,VWS V14.00,2013-06-28 12:17:00,
2013-06-28 07:22:00,80.9,68.5,29.92,NE,43,0.0,0.0,66,0.00,,---,0.00,VWS V14.00,2013-06-28 12:22:00,
2013-06-28 07:27:00,80.9,68.5,29.92,NE,43,0.0,0.0,66,0.00,,---,0.00,VWS V14.00,2013-06-28 12:27:00,
2013-06-28 07:33:00,78.2,68.8,29.92,NNE,30,0.0,0.0,73,0.00,,---,0.00,VWS V14.00,2013-06-28 12:33:00,
2013-06-28 07:38:00,78.5,68.7,29.92,NE,37,0.0,0.0,72,0.00,,---,0.00,VWS V14.00,2013-06-28 12:38:00,
2013-06-28 07:44:00,78.9,69.1,29.92,NE,38,0.0,0.0,72,0.00,,---,0.00,VWS V14.00,2013-06-28 12:44:00,
2013-06-28 07:50:00,79.2,69.0,29.92,NE,54,0.0,0.0,71,0.00,,---,0.00,VWS V14.00,2013-06-28 12:50:00,
2013-06-28 07:55:00,79.4,69.2,29.92,NE,53,0.0,0.0,71,0.00,,---,0.00,VWS V14.00,2013-06-28 12:55:00,
2013-06-28 08:00:00,79.7,69.1,29.94,NNE,33,0.0,0.0,70,0.00,,---,0.00,VWS V14.00,2013-06-28 13:00:00,
2013-06-28 08:05:00,80.0,69.3,29.94,NE,41,0.0,1.0,70,0.00,,---,0.00,VWS V14.00,2013-06-28 13:05:00,
2013-06-28 08:11:00,80.2,69.5,29.94,NE,45,0.0,0.0,70,0.00,,---,0.00,VWS V14.00,2013-06-28 13:11:00,
2013-06-28 08:16:00,80.3,69.6,29.94,NNE,27,5.0,5.0,70,0.00,,---,0.00,VWS V14.00,2013-06-28 13:16:00,
2013-06-28 08:21:00,80.3,69.6,29.94,NE,37,2.0,7.0,70,0.00,,---,0.00,VWS V14.00,2013-06-28 13:21:00,
2013-06-28 08:26:00,80.3,69.6,29.94,NE,49,0.0,0.0,70,0.00,,---,0.00,VWS V14.00,2013-06-28 13:26:00,
2013-06-28 08:32:00,80.5,69.8,29.95,NE,47,1.0,6.0,70,0.00,,---,0.00,VWS V14.00,2013-06-28 13:32:00,
2013-06-28 08:37:00,80.7,70.0,29.95,ENE,59,0.0,1.0,70,0.00,,---,0.00,VWS V14.00,2013-06-28 13:37:00,
2013-06-28 08:42:00,81.0,70.3,29.95,NE,34,0.0,0.0,70,0.00,,---,0.00,VWS V14.00,2013-06-28 13:42:00,
2013-06-28 08:47:00,81.2,70.1,29.95,NE,46,0.0,1.0,69,0.00,,---,0.00,VWS V14.00,2013-06-28 13:47:00,
2013-06-28 08:52:00,81.5,70.4,29.95,NE,37,3.0,6.0,69,0.00,,---,0.00,VWS V14.00,2013-06-28 13:52:00,
2013-06-28 08:57:00,81.3,69.7,29.96,NE,39,0.0,5.0,68,0.00,,---,0.00,VWS V14.00,2013-06-28 13:57:00,
2013-06-28 09:03:00,81.4,70.3,29.96,North,349,0.0,0.0,69,0.00,,---,0.00,VWS V14.00,2013-06-28 14:03:00,
2013-06-28 09:08:00,81.5,70.4,29.96,NNE,32,3.0,5.0,69,0.00,,---,0.00,VWS V14.00,2013-06-28 14:08:00,
2013-06-28 09:13:00,81.7,70.1,29.96,NNE,25,0.0,3.0,68,0.00,,---,0.00,VWS V14.00,2013-06-28 14:13:00,
2013-06-28 09:18:00,82.0,70.4,29.96,NE,35,0.0,0.0,68,0.00,,---,0.00,VWS V14.00,2013-06-28 14:18:00,
2013-06-28 09:23:00,82.3,70.7,29.96,NE,37,0.0,6.0,68,0.00,,---,0.00,VWS V14.00,2013-06-28 14:23:00,
2013-06-28 09:28:00,82.5,70.9,29.96,NNE,15,2.0,10.0,68,0.00,,---,0.00,VWS V14.00,2013-06-28 14:28:00,
2013-06-28 09:33:00,82.6,71.0,29.96,NNE,22,0.0,2.0,68,0.00,,---,0.00,VWS V14.00,2013-06-28 14:33:00,
2013-06-28 09:38:00,82.8,70.7,29.96,NE,34,3.0,6.0,67,0.00,,---,0.00,VWS V14.00,2013-06-28 14:38:00,
2013-06-28 09:43:00,83.2,71.1,29.96,NE,46,1.0,6.0,67,0.00,,---,0.00,VWS V14.00,2013-06-28 14:43:00,
2013-06-28 09:48:00,83.4,70.9,29.96,NNE,27,6.0,7.0,66,0.00,,---,0.00,VWS V14.00,2013-06-28 14:48:00,
2013-06-28 09:53:00,83.5,70.9,29.96,NNE,27,0.0,3.0,66,0.00,,---,0.00,VWS V14.00,2013-06-28 14:53:00,
2013-06-28 09:59:00,83.7,71.1,29.95,NNE,33,1.0,7.0,66,0.00,,---,0.00,VWS V14.00,2013-06-28 14:59:00,
2013-06-28 10:04:00,83.7,70.7,29.95,NNE,26,0.0,12.0,65,0.00,,---,0.00,VWS V14.00,2013-06-28 15:04:00,
2013-06-28 10:09:00,83.7,70.7,29.95,NNE,13,3.0,7.0,65,0.00,,---,0.00,VWS V14.00,2013-06-28 15:09:00,
2013-06-28 10:14:00,84.0,70.5,29.96,NNE,32,2.0,5.0,64,0.00,,---,0.00,VWS V14.00,2013-06-28 15:14:00,
2013-06-28 10:20:00,84.1,70.6,29.96,NE,34,3.0,9.0,64,0.00,,---,0.00,VWS V14.00,2013-06-28 15:20:00,
2013-06-28 10:25:00,84.2,70.7,29.96,NE,40,0.0,7.0,64,0.00,,---,0.00,VWS V14.00,2013-06-28 15:25:00,
2013-06-28 10:31:00,84.7,71.2,29.97,NNE,33,0.0,7.0,64,0.00,,---,0.00,VWS V14.00,2013-06-28 15:31:00,
2013-06-28 10:36:00,84.9,71.8,29.97,NE,43,1.0,1.0,65,0.00,,---,0.00,VWS V14.00,2013-06-28 15:36:00,
2013-06-28 10:41:00,85.3,70.8,29.97,NNE,25,4.0,5.0,62,0.00,,---,0.00,VWS V14.00,2013-06-28 15:41:00,
2013-06-28 10:46:00,85.4,70.9,29.96,NNE,29,6.0,11.0,62,0.00,,---,0.00,VWS V14.00,2013-06-28 15:46:00,
2013-06-28 10:51:00,85.7,71.2,29.96,NNE,18,6.0,6.0,62,0.00,,---,0.00,VWS V14.00,2013-06-28 15:51:00,
2013-06-28 10:56:00,86.0,71.0,29.96,NE,38,0.0,4.0,61,0.00,,---,0.00,VWS V14.00,2013-06-28 15:56:00,
2013-06-28 11:01:00,86.8,70.8,29.96,NNE,19,0.0,6.0,59,0.00,,---,0.00,VWS V14.00,2013-06-28 16:01:00,
2013-06-28 11:06:00,87.2,70.1,29.96,NNE,26,0.0,6.0,57,0.00,,---,0.00,VWS V14.00,2013-06-28 16:06:00,
2013-06-28 11:11:00,87.1,70.0,29.96,NNE,32,3.0,6.0,57,0.00,,---,0.00,VWS V14.00,2013-06-28 16:11:00,
2013-06-28 11:16:00,87.1,70.0,29.96,NNW,340,1.0,5.0,57,0.00,,---,0.00,VWS V14.00,2013-06-28 16:16:00,
2013-06-28 11:22:00,87.6,70.5,29.96,NNE,32,3.0,7.0,57,0.00,,---,0.00,VWS V14.00,2013-06-28 16:22:00,
2013-06-28 11:27:00,87.4,69.8,29.97,NNE,16,5.0,7.0,56,0.00,,---,0.00,VWS V14.00,2013-06-28 16:27:00,
2013-06-28 11:32:00,87.6,70.5,29.97,NE,46,6.0,6.0,57,0.00,,---,0.00,VWS V14.00,2013-06-28 16:32:00,
2013-06-28 11:37:00,87.9,69.7,29.97,NE,37,1.0,7.0,55,0.00,,---,0.00,VWS V14.00,2013-06-28 16:37:00,
2013-06-28 11:42:00,88.7,69.9,29.97,West,277,0.0,5.0,54,0.00,,---,0.00,VWS V14.00,2013-06-28 16:42:00,
2013-06-28 11:47:00,88.7,68.3,29.97,North,0,10.0,11.0,51,0.00,,---,0.00,VWS V14.00,2013-06-28 16:47:00,
2013-06-28 11:52:00,88.2,69.5,29.97,NNE,15,0.0,0.0,54,0.00,,---,0.00,VWS V14.00,2013-06-28 16:52:00,
2013-06-28 11:57:00,88.9,69.6,29.97,NNE,31,0.0,7.0,53,0.00,,---,0.00,VWS V14.00,2013-06-28 16:57:00,
2013-06-28 12:02:00,89.2,68.7,29.97,North,11,4.0,5.0,51,0.00,,---,0.00,VWS V14.00,2013-06-28 17:02:00,
2013-06-28 12:07:00,89.7,68.6,29.97,NNE,30,9.0,9.0,50,0.00,,---,0.00,VWS V14.00,2013-06-28 17:07:00,
2013-06-28 12:12:00,89.3,68.2,29.96,NE,39,6.0,6.0,50,0.00,,---,0.00,VWS V14.00,2013-06-28 17:12:00,
2013-06-28 12:17:00,89.3,67.7,29.96,NNE,18,2.0,10.0,49,0.00,,---,0.00,VWS V14.00,2013-06-28 17:17:00,
2013-06-28 12:22:00,89.7,69.8,29.96,NE,37,4.0,5.0,52,0.00,,---,0.00,VWS V14.00,2013-06-28 17:22:00,
2013-06-28 12:27:00,89.6,69.1,29.96,NNE,29,3.0,7.0,51,0.00,,---,0.00,VWS V14.00,2013-06-28 17:27:00,
2013-06-28 12:32:00,90.7,70.7,29.96,NNE,15,0.0,2.0,52,0.00,,---,0.00,VWS V14.00,2013-06-28 17:32:00,
2013-06-28 12:37:00,90.4,66.2,29.96,NNE,17,3.0,7.0,45,0.00,,---,0.00,VWS V14.00,2013-06-28 17:37:00,
2013-06-28 12:42:00,91.1,65.5,29.96,NNE,21,0.0,6.0,43,0.00,,---,0.00,VWS V14.00,2013-06-28 17:42:00,
2013-06-28 12:47:00,91.1,68.1,29.96,NNE,27,2.0,3.0,47,0.00,,---,0.00,VWS V14.00,2013-06-28 17:47:00,
2013-06-28 12:52:00,92.3,67.9,29.96,NE,39,0.0,3.0,45,0.00,,---,0.00,VWS V14.00,2013-06-28 17:52:00,
2013-06-28 12:57:00,92.6,68.8,29.96,NE,41,0.0,2.0,46,0.00,,---,0.00,VWS V14.00,2013-06-28 17:57:00,
2013-06-28 13:02:00,93.0,69.2,29.96,NNE,24,3.0,3.0,46,0.00,,---,0.00,VWS V14.00,2013-06-28 18:02:00,
2013-06-28 13:08:00,92.5,64.7,29.96,NE,36,1.0,6.0,40,0.00,,---,0.00,VWS V14.00,2013-06-28 18:08:00,
2013-06-28 13:13:00,91.1,63.4,29.95,NE,55,1.0,8.0,40,0.00,,---,0.00,VWS V14.00,2013-06-28 18:13:00,
2013-06-28 13:18:00,91.3,64.3,29.95,NNE,26,2.0,5.0,41,0.00,,---,0.00,VWS V14.00,2013-06-28 18:18:00,
2013-06-28 13:24:00,91.9,66.9,29.95,NE,53,2.0,7.0,44,0.00,,---,0.00,VWS V14.00,2013-06-28 18:24:00,
2013-06-28 13:29:00,92.4,63.9,29.95,North,358,6.0,14.0,39,0.00,,---,0.00,VWS V14.00,2013-06-28 18:29:00,
2013-06-28 13:34:00,91.8,63.3,29.95,NNE,26,0.0,7.0,39,0.00,,---,0.00,VWS V14.00,2013-06-28 18:34:00,
2013-06-28 13:39:00,92.3,64.5,29.95,NNE,17,0.0,3.0,40,0.00,,---,0.00,VWS V14.00,2013-06-28 18:39:00,
2013-06-28 13:44:00,92.4,64.6,29.95,NNE,19,0.0,2.0,40,0.00,,---,0.00,VWS V14.00,2013-06-28 18:44:00,
2013-06-28 13:49:00,93.5,64.8,29.95,NE,35,2.0,5.0,39,0.00,,---,0.00,VWS V14.00,2013-06-28 18:49:00,
2013-06-28 13:54:00,94.1,65.4,29.95,NNE,26,0.0,0.0,39,0.00,,---,0.00,VWS V14.00,2013-06-28 18:54:00,
2013-06-28 13:59:00,94.6,65.1,29.94,NE,34,3.0,6.0,38,0.00,,---,0.00,VWS V14.00,2013-06-28 18:59:00,
2013-06-28 14:04:00,93.3,65.4,29.94,NNE,13,0.0,4.0,40,0.00,,---,0.00,VWS V14.00,2013-06-28 19:04:00,
2013-06-28 14:09:00,93.0,64.4,29.94,NE,37,1.0,10.0,39,0.00,,---,0.00,VWS V14.00,2013-06-28 19:09:00,
2013-06-28 14:14:00,93.4,64.8,29.94,NNE,20,0.0,1.0,39,0.00,,---,0.00,VWS V14.00,2013-06-28 19:14:00,
2013-06-28 14:20:00,93.6,67.1,29.94,NNE,18,0.0,0.0,42,0.00,,---,0.00,VWS V14.00,2013-06-28 19:20:00,
2013-06-28 14:25:00,95.5,66.6,29.94,NNE,18,0.0,0.0,39,0.00,,---,0.00,VWS V14.00,2013-06-28 19:25:00,
2013-06-28 14:31:00,95.3,65.7,29.93,NE,39,0.0,1.0,38,0.00,,---,0.00,VWS V14.00,2013-06-28 19:31:00,
2013-06-28 14:36:00,96.0,65.6,29.93,NNE,23,0.0,0.0,37,0.00,,---,0.00,VWS V14.00,2013-06-28 19:36:00,
2013-06-28 14:41:00,96.2,64.9,29.93,ENE,64,0.0,3.0,36,0.00,,---,0.00,VWS V14.00,2013-06-28 19:41:00,
2013-06-28 14:46:00,96.4,65.1,29.92,NE,48,0.0,0.0,36,0.00,,---,0.00,VWS V14.00,2013-06-28 19:46:00,
2013-06-28 14:51:00,96.0,65.6,29.92,West,281,0.0,0.0,37,0.00,,---,0.00,VWS V14.00,2013-06-28 19:51:00,
2013-06-28 14:56:00,97.4,66.0,29.92,West,281,0.0,0.0,36,0.00,,---,0.00,VWS V14.00,2013-06-28 19:56:00,
2013-06-28 15:01:00,97.3,65.1,29.92,NE,41,0.0,6.0,35,0.00,,---,0.00,VWS V14.00,2013-06-28 20:01:00,
2013-06-28 15:06:00,95.9,63.0,29.92,NE,36,0.0,7.0,34,0.00,,---,0.00,VWS V14.00,2013-06-28 20:06:00,
2013-06-28 15:11:00,95.4,63.4,29.92,NE,37,0.0,4.0,35,0.00,,---,0.00,VWS V14.00,2013-06-28 20:11:00,
2013-06-28 15:16:00,95.5,63.5,29.91,West,280,0.0,0.0,35,0.00,,---,0.00,VWS V14.00,2013-06-28 20:16:00,
2013-06-28 15:21:00,95.8,63.8,29.91,West,278,0.0,0.0,35,0.00,,---,0.00,VWS V14.00,2013-06-28 20:21:00,
2013-06-28 15:26:00,97.2,64.2,29.91,NE,39,0.0,2.0,34,0.00,,---,0.00,VWS V14.00,2013-06-28 20:26:00,
2013-06-28 15:31:00,96.5,64.4,29.91,NE,53,0.0,0.0,35,0.00,,---,0.00,VWS V14.00,2013-06-28 20:31:00,
2013-06-28 15:36:00,97.6,64.5,29.91,NE,43,0.0,0.0,34,0.00,,---,0.00,VWS V14.00,2013-06-28 20:36:00,
2013-06-28 15:42:00,98.3,65.1,29.90,NE,43,0.0,0.0,34,0.00,,---,0.00,VWS V14.00,2013-06-28 20:42:00,
2013-06-28 15:47:00,98.4,64.4,29.90,NNE,30,0.0,0.0,33,0.00,,---,0.00,VWS V14.00,2013-06-28 20:47:00,
2013-06-28 15:52:00,98.1,66.6,29.90,NNE,14,0.0,0.0,36,0.00,,---,0.00,VWS V14.00,2013-06-28 20:52:00,
2013-06-28 15:57:00,98.1,65.8,29.89,North,1,0.0,0.0,35,0.00,,---,0.00,VWS V14.00,2013-06-28 20:57:00,
2013-06-28 16:02:00,97.5,64.4,29.89,WNW,295,0.0,0.0,34,0.00,,---,0.00,VWS V14.00,2013-06-28 21:02:00,
2013-06-28 16:07:00,98.0,64.0,29.89,WNW,283,0.0,2.0,33,0.00,,---,0.00,VWS V14.00,2013-06-28 21:07:00,
2013-06-28 16:12:00,98.2,64.2,29.89,NE,42,0.0,6.0,33,0.00,,---,0.00,VWS V14.00,2013-06-28 21:12:00,
2013-06-28 16:17:00,97.5,63.6,29.89,WNW,302,0.0,0.0,33,0.00,,---,0.00,VWS V14.00,2013-06-28 21:17:00,
2013-06-28 16:22:00,98.1,65.0,29.89,North,9,0.0,3.0,34,0.00,,---,0.00,VWS V14.00,2013-06-28 21:22:00,
2013-06-28 16:28:00,97.6,64.5,29.89,NE,41,0.0,0.0,34,0.00,,---,0.00,VWS V14.00,2013-06-28 21:28:00,
2013-06-28 16:33:00,97.1,64.9,29.89,NE,36,0.0,14.0,35,0.00,,---,0.00,VWS V14.00,2013-06-28 21:33:00,
2013-06-28 16:38:00,96.9,63.9,29.89,NNE,23,0.0,4.0,34,0.00,,---,0.00,VWS V14.00,2013-06-28 21:38:00,
2013-06-28 16:43:00,96.6,62.8,29.89,NE,36,13.0,14.0,33,0.00,,---,0.00,VWS V14.00,2013-06-28 21:43:00,
2013-06-28 16:48:00,95.6,62.8,29.89,NNE,18,3.0,6.0,34,0.00,,---,0.00,VWS V14.00,2013-06-28 21:48:00,
2013-06-28 16:53:00,95.3,63.3,29.89,NE,39,4.0,5.0,35,0.00,,---,0.00,VWS V14.00,2013-06-28 21:53:00,
2013-06-28 16:59:00,95.1,63.2,29.88,NE,45,0.0,3.0,35,0.00,,---,0.00,VWS V14.00,2013-06-28 21:59:00,
2013-06-28 17:03:00,95.3,64.9,29.88,West,270,0.0,3.0,37,0.00,,---,0.00,VWS V14.00,2013-06-28 22:03:00,
2013-06-28 17:09:00,96.2,64.1,29.88,North,358,0.0,0.0,35,0.00,,---,0.00,VWS V14.00,2013-06-28 22:09:00,
2013-06-28 17:13:00,96.7,64.6,29.88,WNW,294,0.0,1.0,35,0.00,,---,0.00,VWS V14.00,2013-06-28 22:13:00,
2013-06-28 17:19:00,96.8,63.8,29.88,WNW,285,0.0,3.0,34,0.00,,---,0.00,VWS V14.00,2013-06-28 22:19:00,
2013-06-28 17:24:00,97.0,64.0,29.88,NNE,20,0.0,1.0,34,0.00,,---,0.00,VWS V14.00,2013-06-28 22:24:00,
2013-06-28 17:29:00,96.8,63.0,29.88,NNE,15,2.0,14.0,33,0.00,,---,0.00,VWS V14.00,2013-06-28 22:29:00,
2013-06-28 17:34:00,95.9,62.2,29.88,NE,48,1.0,3.0,33,0.00,,---,0.00,VWS V14.00,2013-06-28 22:34:00,
2013-06-28 17:39:00,95.8,63.0,29.88,NW,319,0.0,1.0,34,0.00,,---,0.00,VWS V14.00,2013-06-28 22:39:00,
2013-06-28 17:45:00,96.2,64.1,29.87,NNE,13,0.0,1.0,35,0.00,,---,0.00,VWS V14.00,2013-06-28 22:45:00,
2013-06-28 17:50:00,96.1,62.4,29.87,NE,44,0.0,3.0,33,0.00,,---,0.00,VWS V14.00,2013-06-28 22:50:00,
2013-06-28 17:55:00,95.4,63.4,29.87,NNE,30,0.0,1.0,35,0.00,,---,0.00,VWS V14.00,2013-06-28 22:55:00,
2013-06-28 18:00:00,95.6,64.4,29.86,NNE,33,0.0,0.0,36,0.00,,---,0.00,VWS V14.00,2013-06-28 23:00:00,
2013-06-28 18:05:00,96.2,64.1,29.86,NNE,25,0.0,1.0,35,0.00,,---,0.00,VWS V14.00,2013-06-28 23:05:00,
2013-06-28 18:10:00,96.5,64.4,29.86,NE,46,0.0,1.0,35,0.00,,---,0.00,VWS V14.00,2013-06-28 23:10:00,
2013-06-28 18:15:00,96.4,64.3,29.86,NE,43,0.0,0.0,35,0.00,,---,0.00,VWS V14.00,2013-06-28 23:15:00,
2013-06-28 18:20:00,96.9,64.7,29.86,NE,51,0.0,0.0,35,0.00,,---,0.00,VWS V14.00,2013-06-28 23:20:00,
2013-06-28 18:25:00,95.6,63.6,29.86,NE,48,0.0,4.0,35,0.00,,---,0.00,VWS V14.00,2013-06-28 23:25:00,
2013-06-28 18:30:00,94.6,63.5,29.85,NE,44,0.0,5.0,36,0.00,,---,0.00,VWS V14.00,2013-06-28 23:30:00,
2013-06-28 18:35:00,94.5,64.2,29.85,North,350,0.0,1.0,37,0.00,,---,0.00,VWS V14.00,2013-06-28 23:35:00,
2013-06-28 18:40:00,94.9,64.6,29.85,NE,49,0.0,0.0,37,0.00,,---,0.00,VWS V14.00,2013-06-28 23:40:00,
2013-06-28 18:45:00,95.4,65.0,29.86,ENE,59,0.0,1.0,37,0.00,,---,0.00,VWS V14.00,2013-06-28 23:45:00,
2013-06-28 18:50:00,96.0,65.6,29.86,WNW,288,0.0,0.0,37,0.00,,---,0.00,VWS V14.00,2013-06-28 23:50:00,
2013-06-28 18:56:00,95.6,65.2,29.86,NE,53,4.0,4.0,37,0.00,,---,0.00,VWS V14.00,2013-06-28 23:56:00,
2013-06-28 19:01:00,94.9,65.3,29.85,NNE,20,0.0,0.0,38,0.00,,---,0.00,VWS V14.00,2013-06-29 00:01:00,
2013-06-28 19:06:00,95.0,65.4,29.85,NNE,25,0.0,0.0,38,0.00,,---,0.00,VWS V14.00,2013-06-29 00:06:00,
2013-06-28 19:11:00,94.6,65.8,29.85,NE,37,0.0,0.0,39,0.00,,---,0.00,VWS V14.00,2013-06-29 00:11:00,
2013-06-28 19:16:00,94.3,64.8,29.85,NE,53,0.0,0.0,38,0.00,,---,0.00,VWS V14.00,2013-06-29 00:16:00,
2013-06-28 19:21:00,94.0,66.0,29.85,NE,45,0.0,0.0,40,0.00,,---,0.00,VWS V14.00,2013-06-29 00:21:00,
2013-06-28 19:26:00,94.3,65.6,29.85,NE,37,0.0,1.0,39,0.00,,---,0.00,VWS V14.00,2013-06-29 00:26:00,
2013-06-28 19:31:00,94.5,65.7,29.84,West,280,0.0,0.0,39,0.00,,---,0.00,VWS V14.00,2013-06-29 00:31:00,
2013-06-28 19:36:00,94.5,65.7,29.84,West,280,0.0,0.0,39,0.00,,---,0.00,VWS V14.00,2013-06-29 00:36:00,
2013-06-28 19:41:00,94.3,65.6,29.84,West,280,0.0,0.0,39,0.00,,---,0.00,VWS V14.00,2013-06-29 00:41:00,
2013-06-28 19:46:00,94.1,66.1,29.84,West,280,0.0,0.0,40,0.00,,---,0.00,VWS V14.00,2013-06-29 00:46:00,
2013-06-28 19:51:00,94.3,67.0,29.84,West,280,0.0,0.0,41,0.00,,---,0.00,VWS V14.00,2013-06-29 00:51:00,
2013-06-28 19:56:00,94.6,66.6,29.84,West,280,0.0,0.0,40,0.00,,---,0.00,VWS V14.00,2013-06-29 00:56:00,
2013-06-28 20:01:00,94.6,67.3,29.84,WNW,287,0.0,0.0,41,0.00,,---,0.00,VWS V14.00,2013-06-29 01:01:00,
2013-06-28 20:06:00,94.5,66.5,29.84,WNW,287,0.0,0.0,40,0.00,,---,0.00,VWS V14.00,2013-06-29 01:06:00,
2013-06-28 20:11:00,94.1,67.5,29.84,WNW,287,0.0,0.0,42,0.00,,---,0.00,VWS V14.00,2013-06-29 01:11:00,
2013-06-28 20:17:00,93.5,67.0,29.84,WNW,287,0.0,0.0,42,0.00,,---,0.00,VWS V14.00,2013-06-29 01:17:00,
2013-06-28 20:22:00,92.8,66.4,29.84,NW,323,0.0,0.0,42,0.00,,---,0.00,VWS V14.00,2013-06-29 01:22:00,
2013-06-28 20:27:00,92.0,67.0,29.84,NNW,331,0.0,0.0,44,0.00,,---,0.00,VWS V14.00,2013-06-29 01:27:00,
2013-06-28 20:32:00,91.4,67.1,29.84,NNW,331,0.0,0.0,45,0.00,,---,0.00,VWS V14.00,2013-06-29 01:32:00,
2013-06-28 20:37:00,91.0,66.7,29.84,NNW,331,0.0,0.0,45,0.00,,---,0.00,VWS V14.00,2013-06-29 01:37:00,
2013-06-28 20:42:00,90.7,67.1,29.84,NNW,331,0.0,0.0,46,0.00,,---,0.00,VWS V14.00,2013-06-29 01:42:00,
2013-06-28 20:47:00,90.5,66.9,29.84,NNW,331,0.0,0.0,46,0.00,,---,0.00,VWS V14.00,2013-06-29 01:47:00,
2013-06-28 20:52:00,90.3,66.7,29.84,NNW,331,0.0,0.0,46,0.00,,---,0.00,VWS V14.00,2013-06-29 01:52:00,
2013-06-28 20:57:00,90.1,66.6,29.84,NE,36,1.0,6.0,46,0.00,,---,0.00,VWS V14.00,2013-06-29 01:57:00,
2013-06-28 21:02:00,89.7,66.8,29.85,NE,52,0.0,10.0,47,0.00,,---,0.00,VWS V14.00,2013-06-29 02:02:00,
2013-06-28 21:07:00,89.3,65.8,29.85,NNE,33,3.0,10.0,46,0.00,,---,0.00,VWS V14.00,2013-06-29 02:07:00,
2013-06-28 21:12:00,88.9,65.5,29.85,NE,34,0.0,9.0,46,0.00,,---,0.00,VWS V14.00,2013-06-29 02:12:00,
2013-06-28 21:17:00,88.6,65.2,29.85,NE,44,6.0,11.0,46,0.00,,---,0.00,VWS V14.00,2013-06-29 02:17:00,
2013-06-28 21:22:00,88.4,65.0,29.85,NE,38,0.0,1.0,46,0.00,,---,0.00,VWS V14.00,2013-06-29 02:22:00,
2013-06-28 21:27:00,88.1,64.7,29.85,NNE,30,2.0,3.0,46,0.00,,---,0.00,VWS V14.00,2013-06-29 02:27:00,
2013-06-28 21:32:00,87.9,64.6,29.85,NNE,28,0.0,0.0,46,0.00,,---,0.00,VWS V14.00,2013-06-29 02:32:00,
2013-06-28 21:37:00,87.9,63.9,29.85,NNE,31,0.0,2.0,45,0.00,,---,0.00,VWS V14.00,2013-06-29 02:37:00,
2013-06-28 21:42:00,87.7,63.1,29.85,NNE,22,0.0,0.0,44,0.00,,---,0.00,VWS V14.00,2013-06-29 02:42:00,
2013-06-28 21:47:00,87.6,62.4,29.86,NNE,20,4.0,4.0,43,0.00,,---,0.00,VWS V14.00,2013-06-29 02:47:00,
2013-06-28 21:52:00,87.5,62.3,29.86,North,5,5.0,7.0,43,0.00,,---,0.00,VWS V14.00,2013-06-29 02:52:00,
2013-06-28 21:57:00,87.3,61.4,29.86,NE,34,0.0,4.0,42,0.00,,---,0.00,VWS V14.00,2013-06-29 02:57:00,
2013-06-28 22:02:00,87.0,61.8,29.86,NNE,29,0.0,0.0,43,0.00,,---,0.00,VWS V14.00,2013-06-29 03:02:00,
2013-06-28 22:07:00,86.8,61.6,29.86,NE,34,0.0,5.0,43,0.00,,---,0.00,VWS V14.00,2013-06-29 03:07:00,
2013-06-28 22:12:00,86.6,60.8,29.86,NNE,18,0.0,7.0,42,0.00,,---,0.00,VWS V14.00,2013-06-29 03:12:00,
2013-06-28 22:17:00,86.5,61.4,29.86,NE,34,0.0,2.0,43,0.00,,---,0.00,VWS V14.00,2013-06-29 03:17:00,
2013-06-28 22:22:00,86.3,60.5,29.86,NE,35,0.0,6.0,42,0.00,,---,0.00,VWS V14.00,2013-06-29 03:22:00,
2013-06-28 22:27:00,86.1,60.3,29.86,North,8,3.0,5.0,42,0.00,,---,0.00,VWS V14.00,2013-06-29 03:27:00,
2013-06-28 22:32:00,85.9,59.5,29.86,North,11,4.0,10.0,41,0.00,,---,0.00,VWS V14.00,2013-06-29 03:32:00,
2013-06-28 22:37:00,85.9,59.5,29.86,NNE,30,0.0,2.0,41,0.00,,---,0.00,VWS V14.00,2013-06-29 03:37:00,
2013-06-28 22:42:00,85.8,59.4,29.86,NNE,27,0.0,2.0,41,0.00,,---,0.00,VWS V14.00,2013-06-29 03:42:00,
2013-06-28 22:47:00,85.6,58.5,29.87,NE,43,0.0,1.0,40,0.00,,---,0.00,VWS V14.00,2013-06-29 03:47:00,
2013-06-28 22:52:00,85.5,58.5,29.87,NNE,15,0.0,1.0,40,0.00,,---,0.00,VWS V14.00,2013-06-29 03:52:00,
2013-06-28 22:57:00,85.3,58.3,29.87,NNE,29,0.0,3.0,40,0.00,,---,0.00,VWS V14.00,2013-06-29 03:57:00,
2013-06-28 23:02:00,85.2,58.9,29.87,NNE,15,0.0,3.0,41,0.00,,---,0.00,VWS V14.00,2013-06-29 04:02:00,
2013-06-28 23:03:00,85.2,58.2,29.87,NE,34,2.0,4.0,40,0.00,,---,0.00,VWS V14.00,2013-06-29 04:03:00,
2013-06-28 23:04:00,85.1,58.1,29.87,NE,34,0.0,2.0,40,0.00,,---,0.00,VWS V14.00,2013-06-29 04:04:00,
2013-06-28 23:09:00,84.9,58.6,29.87,NE,53,0.0,5.0,41,0.00,,---,0.00,VWS V14.00,2013-06-29 04:09:00,
2013-06-28 23:14:00,84.7,58.4,29.87,NE,34,0.0,4.0,41,0.00,,---,0.00,VWS V14.00,2013-06-29 04:14:00,
2013-06-28 23:16:00,84.6,59.0,29.87,NE,45,0.0,0.0,42,0.00,,---,0.00,VWS V14.00,2013-06-29 04:16:00,
2013-06-28 23:21:00,84.3,58.7,29.87,NE,39,0.0,1.0,42,0.00,,---,0.00,VWS V14.00,2013-06-29 04:21:00,
2013-06-28 23:26:00,84.0,58.5,29.87,NNE,24,0.0,1.0,42,0.00,,---,0.00,VWS V14.00,2013-06-29 04:26:00,
2013-06-28 23:31:00,83.7,58.8,29.87,NNE,22,0.0,1.0,43,0.00,,---,0.00,VWS V14.00,2013-06-29 04:31:00,
2013-06-28 23:36:00,83.4,58.6,29.87,NE,54,0.0,2.0,43,0.00,,---,0.00,VWS V14.00,2013-06-29 04:36:00,
2013-06-28 23:41:00,83.2,59.0,29.87,NE,43,0.0,0.0,44,0.00,,---,0.00,VWS V14.00,2013-06-29 04:41:00,
2013-06-28 23:46:00,83.0,58.9,29.87,NE,41,0.0,0.0,44,0.00,,---,0.00,VWS V14.00,2013-06-29 04:46:00,
2013-06-28 23:51:00,82.8,58.7,29.87,NNE,31,0.0,0.0,44,0.00,,---,0.00,VWS V14.00,2013-06-29 04:51:00,
2013-06-28 23:56:00,82.6,59.1,29.87,NNE,23,3.0,3.0,45,0.00,,---,0.00,VWS V14.00,2013-06-29 04:56:00,